Weather in Verkhnyaya Sava

Russia / Perm Krai     56°27′19″N   55°06′06″E
В апреле 2022 года жителям России запретили посещать сайт meteo.paraplan.net по решению Генеральной прокуратуры. Аудитория сайта уменьшилась в 10 раз. Владельцы сайта не видят смысла в поддержке погодного сервера в таких условиях. Сайт будет закрыт в октябре.
temp.,
°C
wind,
m/s
gust,
m/s
humid.,
%
clouds,
%
prec.,
mm/h
press.,
hPa
HPBL,
m
3 october, mon
mon323:00+12s71652100 0.0 1018632
02:00+11s7145998 0.2 1018572
05:00+9s51473100 2.4 1019504
08:00+9s61376100 2.3 1020476
11:00+10s61365100 2.5 1021522
14:00+14s7124770 0.0 1021652
17:00+15ssw61245100 0.0 1022747
20:00+11s4125575 0.0 1024235
4 october, tue
tue423:00+10s4125590 0.0 1025271
02:00+8s3115933 0.0 1026229
05:00+7sse3960100 0.0 1027165
08:00+6sse3105975 0.0 1028186
11:00+12s593829 0.0 1029425
14:00+15s6828100 0.0 1029792
17:00+13s4834100 0.0 1029297
20:00+10s3939100 0.0 1030190
5 october, wed
wed523:00+8sse394386 0.0 1030191
02:00+7sse3644100 0.0 1030100
05:00+7sse3943100 0.0 1029200
08:00+7sse3642100 0.0 1029162
11:00+10s5837100 0.0 1028432
14:00+11sse51037100 0.0 1027525
17:00+10s51136100 0.0 1027464
20:00+10sse41040100 0.0 1026414
6 october, thu
thu623:00+10sse61236100 0.0 1024446
02:00+8s61160100 0.1 1023700
05:00+7sse41177100 1.2 1020543
08:00+7sse41174100 0.4 1018534
11:00+7s51187100 1.6 1017502
14:00+7s5981100 3.3 1016458
17:00+8s488699 3.3 1014435
20:00+7se2694100 1.3 1014233
7 october, fri
fri723:00+8ssw259495 1.8 1013173
02:00+7wsw489385 0.4 1013345
05:00+5wsw489497 0.5 1012304
08:00+5wsw489165 0.0 1012392
11:00+6sw5992100 0.1 1012483
14:00+9wsw796399 0.1 10111293
17:00+8wsw6974100 0.3 10111073
20:00+7wsw61191100 0.4 1011751